+ View the NASA Portal
+ Center for Near-Earth Object Studies
IMPORTANT:
The SSD Announcement email list is now available. Major changes are coming in the near future, including possible hostname and/or URL changes. To be notified of such changes, subscribe to this email list.
Please visit
this page
for more details.
Don't show this message again
JPL Small-Body Database Browser
Search:
[
help
]
214910 (2007 TP181)
Classification:
Outer Main-belt Asteroid
SPK-ID:
2214910
[
Ephemeris
|
Orbit Diagram
|
Orbital Elements
|
Mission Design
|
Physical Parameters
|
Discovery Circumstances
|
Close-Approach Data
]
[ show orbit diagram ]
Orbital Elements at Epoch 2458600.5 (2019-Apr-27.0) TDB
Reference:
JPL 17
(heliocentric ecliptic J2000)
Element
Value
Uncertainty (1-sigma)
Units
e
.3091758478593852
4.9421e-08
a
3.95718429637762
7.5672e-08
au
q
2.733718486409225
1.8639e-07
au
i
10.20659411506947
5.4515e-06
deg
node
131.9050134114457
3.3369e-05
deg
peri
252.8194813921383
3.4967e-05
deg
M
166.3980488032279
1.0395e-05
deg
t
p
2457271.504314735899
(2015-Sep-06.00431474)
6.5609e-05
TDB
period
2875.264765038491
7.87
8.2474e-05
2.258e-07
d
yr
n
.1252058608227617
3.5914e-09
deg/d
Q
5.180650106346015
9.9068e-08
au
Orbit Determination Parameters
# obs. used (total)
284
data-arc span
7151 days (19.58 yr)
first obs. used
1999-10-08
last obs. used
2019-05-07
planetary ephem.
DE431
SB-pert. ephem.
SB431-N16
condition code
0
norm. resid. RMS
.62335
source
ORB
producer
Otto Matic
solution date
2019-May-30 08:21:37
Additional Information
Earth MOID
= 1.75888 au
Jupiter MOID
= .743903 au
T_jup
= 2.947
[ show covariance matrix ]
[
Ephemeris
|
Orbit Diagram
|
Orbital Elements
|
Mission Design
|
Physical Parameters
|
Discovery Circumstances
|
Close-Approach Data
]
Physical Parameter Table
Parameter
Symbol
Value
Units
Sigma
Reference
Notes
absolute magnitude
H
14.9
n/a
MPO440134
214910 (2007 TP181)
Discovered 2007-Oct-08 by LONEOS at Anderson Mesa
Reference:
20090509/Numbers.arc
Last Updated:
2009-05-11
[ show close-approach data ]
Alternate Designations
2007 TP181
= 1999 TV281
[
Ephemeris
|
Orbit Diagram
|
Orbital Elements
|
Mission Design
|
Physical Parameters
|
Discovery Circumstances
|
Close-Approach Data
]
2019-Dec-11 22:49 UT
(server date/time)
Site Manager:
Ryan S. Park
Webmaster
:
Alan B. Chamberlin